Regional Weather Roundup
Issued by NWS Burlington, VT

Home | Current Version | Previous Version | Text Only | Print | Product List | Glossary On
Versions: 1 2 3 4 5 6 7 8 9 10 11 12 13 14 15 16 17 18 19 20 21 22 23 24 25 26 27 28 29 30 31 32 33 34 35 36 37 38 39 40 41 42 43 44 45 46 47 48 49 50
000
ASUS41 KBTV 032330
RWRBTV
VERMONT REGIONAL WEATHER ROUNDUP
NATIONAL WEATHER SERVICE BURLINGTON VT
700 PM EDT WED JUN 03 2015

NOTE: "FAIR" INDICATES FEW OR NO CLOUDS BELOW 12,000 FEET WITH NO
SIGNIFICANT WEATHER AND/OR OBSTRUCTIONS TO VISIBILITY.

* THESE REPORTS ARE NOT UNDER NWS QUALITY CONTROL AND/OR DO NOT
  REPORT WEATHER SUCH AS PRECIPITATION AND FOG.

VTZ001>019-040000-
_____VERMONT_____


CITY           SKY/WX    TMP DP  RH WIND       PRES   REMARKS
BURLINGTON     MOCLDY    63  43  48 NW7       30.20S
MONTPELIER     CLEAR     62  43  49 CALM      30.23S
MORRISVILLE    CLEAR     64  44  48 N3        30.21S
ST. JOHNSBURY*   N/A     63  40  42 MISG      30.18S
LYNDONVILLE*     N/A     58  39  49 CALM      30.23R
MIDDLEBURY*      N/A     62  47  57 N6        30.19S
RUTLAND*       CLEAR     61  43  51 NW3       30.20R
SPRINGFIELD    CLEAR     66  42  41 NE5       30.19R
HIGHGATE*        N/A     60  46  61 CALM      30.21S
NEWPORT*         N/A     57  44  61 NE5       30.22S
BENNINGTON     CLEAR     65  48  54 NW6       30.17S
SUTTON*          N/A     57 N/A N/A MISG        N/A
GALLUP MILLS*    N/A     55 N/A N/A MISG        N/A
MT. MANSFIELD*   N/A     48 N/A N/A W3          N/A

_____LAKE CHAMPLAIN_____


CITY           SKY/WX    TMP DP  RH WIND       PRES   REMARKS
BURTON ISLAND*   N/A     63  48  59 NW1         N/A
COLCHESTER RF*   N/A     57  45  62 N10         N/A
DIAMOND ISL*     N/A     57  45  62 N9          N/A

$$

NYZ007-026>031-035-052-083-040000-
_____NORTHERN NEW YORK_____


CITY           SKY/WX    TMP DP  RH WIND       PRES   REMARKS
PLATTSBURGH    CLEAR     60  40  47 NE5       30.21S
SARANAC LAKE   CLEAR     64  41  42 E6        30.18S
MASSENA        CLEAR     65  45  48 NE7       30.19S
OGDENSBURG*    CLEAR     68  48  49 NE6       30.17R
POTSDAM*       CLEAR     36  21  55 NE8       30.17S
STARK FALLS*     N/A     66 N/A N/A N2          N/A
WATERTOWN      CLEAR     70  48  45 NE8       30.14F
FT DRUM        CLEAR     69  49  49 N7        30.14F
ALBANY         PTCLDY    68  42  38 NE7       30.18S
GLENS FALLS    CLEAR     65  42  43 E8        30.19R

$$
NHZ002-005-011-040000-
_____NEW HAMPSHIRE_____


CITY           SKY/WX    TMP DP  RH WIND       PRES   REMARKS
LEBANON        CLEAR     67  44  43 CALM      30.18R
KEENE          CLEAR     66  45  45 NW3       30.18S
MT WASHINGTON  FOG       37  36  93 W16         N/A  VSB 1/4
PLYMOUTH         N/A     65  49  56 W3        30.18R
WHITEFIELD     CLEAR     61  41  47 NE7       30.20S

$$

_____REGIONAL QUEBEC LOCATIONS_____


CITY           SKY/WX    TMP DP  RH WIND       PRES   REMARKS
MONTREAL       MOCLDY    63  45  51 S8        30.20S
QUEBEC CITY    MOCLDY    55  43  62 S8        30.23S
SHERBROOKE     CLEAR     55  43  62 VRB2      30.22F

_____REGIONAL ONTARIO LOCATIONS_____


CITY           SKY/WX    TMP DP  RH WIND       PRES   REMARKS
OTTAWA         CLOUDY    66  48  52 SE7       30.18S

______KEY______
VSB  - VISIBILITY IN MILES
WCI  - WIND CHILL INDEX
HX   - HEAT INDEX
$$
NNNN



USA.gov is the U.S. government's official web portal to all federal, state and local government web resources and services.